Location: Dundir?lap?du
(17.0020°N, 80.4080°E)
Time: 08:19:08
(UTC+00:00)

Daily predictions for brighter satellites

Satellite Brightness Start Highest point End
(mag) Time Altitude Azimuth Time Altitude Azimuth Time Altitude Azimuth
Cosmos 1238 Rocket 4.3 13:18:58 10° SSE 13:22:59 29° E 13:27:29 10° NNE
SWIFT 2.3 13:21:25 10° W 13:25:24 69° SSW 13:29:22 10° ESE
Delta 2 Rocket 2.8 13:22:49 10° NW 13:26:01 65° NNE 13:29:16 10° ESE
SL-8 R/B 4.5 13:27:11 10° S 13:31:17 29° SE 13:35:22 10° ENE
Cosmos 1459 Rocket 4.1 13:32:21 10° N 13:38:42 89° WSW 13:45:04 10° S
Cosmos 2016 Rocket 4.2 13:32:58 10° N 13:39:07 53° E 13:45:18 10° SSE
Meteor PRIRODA 3.7 13:36:24 10° SSE 13:39:43 48° ENE 13:43:01 10° N
Cosmos 1867 3.6 13:34:39 10° NNW 13:40:06 82° ENE 13:45:30 10° SSE
Cosmos 2151 4.4 13:38:24 10° NE 13:41:20 19° E 13:43:41 12° ESE
CZ-4B R/B 3.3 13:38:10 10° SSE 13:42:53 82° ENE 13:47:38 10° N
Cosmos 1812 2.6 13:42:47 10° S 13:46:16 53° E 13:49:45 10° NNE
Cosmos 2298 Rocket 4.0 13:45:06 10° N 13:50:23 68° ENE 13:55:39 10° SSE
Cosmos 972 Rocket 4.0 13:45:43 10° S 13:50:34 53° E 13:55:19 10° NNE
Landsat 7 3.8 13:47:57 10° SSE 13:52:39 90° NNW 13:57:21 10° NNW
CZ-4B DEB 4.4 13:49:45 10° SSE 13:55:03 51° ENE 14:00:20 10° N
Intelsat 5-3 Rocket 3.1 13:54:25 10° W 13:56:59 33° SSW 13:59:47 17° SE
Cosmos 2278 Rocket 4.1 13:56:25 10° NE 13:58:12 11° ENE 13:59:26 11° E
Meteor 2-8 Rocket 4.4 13:53:24 10° N 13:59:31 86° E 14:05:36 10° S
Resurs 1-3 3.8 13:57:01 12° SSE 14:00:50 51° ENE 14:05:02 10° N
Cosmos 1782 4.0 14:00:58 20° E 14:01:05 20° E 14:03:53 10° NE
YAOGAN 1 3.6 14:00:26 10° S 14:04:31 45° W 14:08:37 10° NNW
Cosmos 2058 Rocket 3.2 14:01:49 10° S 14:06:10 74° W 14:10:32 10° N
Cosmos 1953 Rocket 3.8 14:02:02 10° N 14:06:15 48° E 14:09:08 19° SSE
Cosmos 1666 2.3 14:04:34 10° N 14:08:00 89° WSW 14:10:53 14° S
Orbus 7S 4.0 14:06:31 10° SW 14:08:34 47° SSE 14:09:16 37° ESE
Cosmos 1680 Rocket 4.4 14:06:16 18° SE 14:08:50 27° E 14:13:13 10° NE
Cosmos 2233 Rocket 4.0 14:06:21 10° N 14:12:38 68° E 14:18:53 10° SSE
SL-16 R/B 2.6 14:12:13 10° S 14:17:22 37° ESE 14:22:31 10° NE
ADEOS 4.2 14:12:45 10° S 14:17:50 55° WSW 14:22:56 10° NNW
Cosmos-2242 3.0 14:18:22 26° SSE 14:20:27 51° E 14:24:31 10° NNE
CZ-4B R/B 3.3 14:23:16 17° S 14:25:44 51° W 14:29:13 10° NNW
Meteor 2-21 4.4 14:25:25 10° S 14:31:33 68° E 14:37:41 10° NNE
SPOT 1/Viking Rocket 3.5 14:31:14 22° S 14:34:42 83° W 14:39:52 10° NNW
CSL-04 Rocket 3.9 14:34:16 40° ESE 14:35:25 46° ENE 14:40:28 10° N
SeaSat 1 2.3 14:35:07 39° SSE 14:36:56 82° ENE 14:41:50 10° NNW
Cosmos 1933 3.9 14:38:52 40° NE 14:38:52 40° NE 14:41:42 10° NNE
CSL-04 Debris 4.3 14:37:35 42° SE 14:39:08 57° ENE 14:44:29 10° N
Cosmos 1602 4.2 14:38:52 10° NNW 14:42:20 52° W 14:43:11 41° SW
Cosmos 1812 Rocket 3.4 14:45:31 69° E 14:45:31 69° E 14:49:54 10° N
Meteor 2-21 Rocket 4.4 14:43:44 35° SSE 14:46:21 63° E 14:52:26 10° NNE
CARTOSAT-1 3.7 14:47:42 58° NE 14:47:42 58° NE 14:51:29 10° N
CZ-4 R/B 2.5 14:46:53 26° SW 14:48:21 36° W 14:51:50 10° NNW
Cosmos 489 Rocket 4.4 14:43:20 10° N 14:49:29 67° ENE 14:50:58 51° SE
YAOGAN 20C 4.4 14:44:42 10° SSW 14:50:20 74° ESE 14:56:04 10° NNE
ARIANE 5 R/B 4.5 14:32:32 10° WSW 14:51:38 27° SSW 14:53:44 24° S
GPS 2-14 Rocket1 3.9 14:48:42 10° W 14:50:28 30° W 14:50:28 30° W
ATLAS 5 CENTAUR R/B 2.8 14:46:34 10° N 14:52:21 47° ENE 14:53:14 45° E
Atlas 2A Centaur Rocket 3.8 14:48:14 10° SW 14:50:54 21° SSW 14:50:54 21° SSW
Resurs 01 Rocket 1.5 14:53:58 85° ENE 14:53:58 85° ENE 14:58:22 10° N
YAOGAN 20A 4.5 14:48:48 10° SSW 14:54:27 86° ESE 15:00:14 10° NNE
GPS 2-17 Rocket1 3.0 14:49:44 10° WSW 14:54:20 82° SSW 14:54:20 82° SSW
Meteor 2-2 Rocket 4.4 14:49:34 14° S 14:54:51 79° W 15:00:53 10° N
YAOGAN 20B 4.4 14:50:17 10° SSW 14:55:56 82° ESE 15:01:42 10° NNE
CZ-4C R/B 4.0 14:55:51 10° N 14:58:42 48° N 14:58:42 48° N
Cosmos 1076 Rocket 4.3 14:56:50 10° NNW 15:00:55 48° W 15:01:34 43° WSW
SEDSat Delta rocket 4.0 15:00:25 10° WNW 15:04:22 39° SW 15:04:22 39° SW
SWIFT 4.5 15:03:02 10° WSW 15:04:30 17° SW 15:04:30 17° SW
Cosmos 1464 Rocket 4.2 15:01:25 10° N 15:06:53 52° ENE 15:06:53 52° ENE
USA 186 4.4 15:10:10 19° WNW 15:10:10 19° WNW 15:11:36 10° NW
Aurora 2 Rocket 3.6 15:07:44 10° WNW 15:09:57 36° NW 15:09:57 36° NW
Cosmos 1891 Rocket 4.5 15:07:54 10° N 15:14:21 83° W 15:15:31 62° S
Okean O Rocket 2.4 15:16:59 49° WNW 15:16:59 49° WNW 15:20:31 10° NNW
Meteor 1-26 Rocket 4.2 15:16:57 86° SSW 15:17:05 89° W 15:23:09 10° N
Cosmos 1943 Rocket 3.3 15:33:00 10° N 15:36:26 37° N 15:36:26 37° N
Cosmos 2278 Rocket 3.0 15:36:52 10° NNW 15:41:18 47° WNW 15:41:18 47° WNW
ATLAS 3B R/B 4.2 16:31:03 10° NNW 16:35:18 35° N 16:35:18 35° N
SL-16 R/B 4.4 20:43:08 22° E 20:44:16 23° ENE 20:48:59 10° NNE
H-2A R/B 3.6 21:04:07 53° ESE 21:04:07 53° ESE 21:13:35 10° ESE
SL-16 R/B 3.7 21:24:34 10° N 21:29:39 34° ENE 21:34:42 10° SE
ARIANE 5 R/B 3.9 21:36:01 34° SSE 21:36:01 34° SSE 21:52:34 10° E
ATLAS CENTAUR R/B 4.1 21:39:07 12° E 21:39:07 12° E 21:39:39 10° ENE
CZ-2C R/B 3.5 21:35:01 10° NNE 21:38:33 38° ENE 21:38:33 38° ENE
NOAA 11 4.5 21:36:51 10° NNE 21:41:56 63° E 21:41:56 63° E
NOSS 3-4 (C) 4.4 21:35:39 10° NW 21:53:59 - SSE 21:41:12 48° WNW
ATLAS CENTAUR R/B 4.2 21:37:49 10° NW 21:44:21 39° WNW 21:44:21 39° WNW
Cosmos 1295 Rocket 4.3 21:52:57 82° S 21:53:15 89° WNW 21:59:23 10° N
PAYLOAD A 4.4 21:48:50 10° NNE 21:53:37 55° ESE 21:53:48 55° ESE
Cosmos 2360 Rocket 4.3 21:51:37 10° NNE 21:56:14 25° ENE 22:00:48 10° SE
Cosmos 1486 Rocket 4.3 22:00:38 54° SE 22:01:21 60° ESE 22:06:28 10° NNE
Cosmos 2074 Rocket 4.0 22:01:43 61° WNW 22:01:43 61° WNW 22:07:39 10° N
Cosmos 1825 4.1 22:08:29 21° N 22:08:29 21° N 22:09:44 10° N
Cosmos 2278 3.8 22:04:08 10° NNW 22:08:53 55° WNW 22:08:53 55° WNW
Cosmos 1241 Rocket 4.3 22:09:28 60° W 22:10:05 64° WNW 22:16:12 10° NNE
ASTEX 1 4.5 22:08:12 10° SSE 22:12:51 44° E 22:17:31 10° N
Cosmos 2184 Rocket 4.2 22:16:05 46° W 22:16:05 46° W 22:21:58 10° NNW
Cosmos 2333 Rocket 3.7 22:12:23 10° N 22:17:37 36° ENE 22:22:50 10° SE
Hubble Space Telescope 2.8 22:16:10 18° NNW 22:17:49 24° NNE 22:21:03 10° ENE
ATLAS 5 CENTAUR R/B 3.9 21:50:41 10° W 22:18:27 39° SW 22:25:31 10° SSE
Cosmos 405 Rocket 4.2 22:16:46 10° NNE 22:20:04 33° E 22:23:12 11° SSE
Tiangong 0.7 22:21:53 11° N 22:21:53 11° N 22:22:19 10° N
UNK 4.5 22:23:23 37° NW 22:23:23 37° NW 22:26:32 10° NNW
Cosmos 2297 Rocket 3.6 22:19:38 11° SSE 22:24:25 35° ESE 22:29:28 10° NE
USA 215 3.2 22:18:07 10° NE 22:24:40 89° WNW 22:27:34 37° SW
IRS-1D 3.5 22:20:00 10° N 22:25:15 65° WNW 22:26:27 50° SW
Cosmos 2154 Rocket 4.2 22:25:33 44° WSW 22:26:31 47° W 22:32:26 10° NNW
SL-16 R/B 3.2 22:28:12 34° W 22:28:12 34° W 22:33:07 10° NW
ARIANE 44L R/B 4.4 22:27:11 32° SSW 22:27:42 32° SSW 22:31:14 10° SE
Sich 1 Rocket 3.5 22:24:26 10° N 22:28:54 87° E 22:31:09 29° S
Cosmos 2322 Rocket 2.2 22:25:52 10° NNW 22:31:32 84° ENE 22:37:12 10° SSE
Cosmos 2151 Rocket 3.5 22:31:36 10° NNW 22:35:59 67° W 22:37:36 37° SSW
Cosmos 2341 Rocket 4.3 22:31:40 10° S 22:37:56 68° E 22:44:08 10° N
Envisat 4.3 22:35:06 10° NNW 22:38:35 22° WNW 22:38:35 22° WNW
Nadezhda 3 Rocket 3.9 22:39:27 10° N 22:45:48 84° W 22:52:04 10° S
Atlas Centaur 2 1.0 22:45:02 49° W 22:45:51 72° NNW 22:49:23 10° ENE
Thor Agena Rocket 4.2 22:43:10 10° N 22:47:54 36° WNW 22:49:32 29° WSW
Cosmos 1025 Rocket 3.3 22:47:04 37° WSW 22:48:08 45° W 22:52:18 10° N
Okean 2 Rocket 3.3 22:45:28 10° NNW 22:49:40 47° W 22:51:49 26° SSW
Cosmos 2366 rocket 4.2 22:48:23 10° S 22:54:41 76° E 23:01:01 10° N
Ariane H10-3 4.1 22:56:30 10° SSE 22:56:30 10° SSE 22:56:38 10° SSE
Cosmos 371 Rocket 4.0 23:03:06 23° WSW 23:05:16 34° WNW 23:09:35 10° N
H-2A R/B 2.2 23:01:23 10° N 23:06:46 65° WNW 23:12:05 10° SSW
CZ-3 Stage 3 2.6 23:04:52 18° W 23:06:53 49° SSW 23:09:51 10° SE
Palapa 6 Rocket 2.7 23:03:57 16° WNW 23:06:57 88° NNE 23:11:24 10° ESE
Iridium 921 4.4 23:06:28 13° SSW 23:09:23 56° W 23:12:46 10° N
H-2A R/B 3.0 23:06:28 10° NNE 23:09:34 51° E 23:12:40 10° S
BREEZE-M DEB (TANK) 3.5 23:09:39 14° SSW 23:11:31 42° ESE 23:16:11 10° NE
Star 48B 3.7 23:11:17 22° WSW 23:13:00 81° SSE 23:15:06 10° ENE
SL-16 R/B 3.5 23:09:35 10° WNW 23:13:22 19° WSW 23:16:11 13° SW
H-2A R/B 4.5 23:07:09 14° W 23:14:21 37° SSW 23:28:57 10° SSE
ATLAS CENTAUR R/B 2.9 23:14:09 14° WNW 23:14:56 14° WNW 23:16:55 10° NNW
CZ-2C R/B 4.3 23:16:36 10° WNW 23:17:05 10° WNW 23:17:33 10° WNW
Cosmos 2333 4.2 23:11:36 10° NNW 23:17:19 72° WSW 23:23:03 10° S
CENTAUR R/B 4.4 23:15:15 10° SSE 23:18:27 18° ESE 23:21:53 10° ENE
Lacrosse 5 rocket 2.6 23:16:00 10° NNW 23:19:34 40° NE 23:23:00 10° SE
COSMOS 2455 3.0 23:18:15 10° SW 23:24:05 55° WNW 23:29:58 10° N
Okean 1 Rocket 3.9 23:21:16 10° NNW 23:24:55 27° W 23:28:34 10° SSW
ARIANE 5 R/B 3.0 23:20:25 10° NNE 23:25:23 62° ESE 23:30:18 10° S
RESURS DK-1 2.3 23:23:07 10° NNW 23:27:07 63° WSW 23:31:07 10° S
ARGOS 3.3 23:23:00 10° NNE 23:28:22 81° ESE 23:33:45 10° S
Delta 168 4.5 23:20:38 10° W 23:28:33 54° NNW 23:33:47 10° ENE
COSMOS 2428 4.5 23:24:02 10° N 23:29:14 37° ENE 23:34:27 10° SE
SL-08 RB Rocket 4.4 23:25:59 10° NNE 23:30:20 56° E 23:34:39 10° S
Cosmos 2219 Rocket 2.2 23:27:50 10° NNW 23:33:28 74° WSW 23:39:07 10° S
Aureole 1 Rocket 3.6 23:35:27 10° S 23:39:03 44° ESE 23:42:07 10° NNE
Cosmos 2360 Rocket 3.1 23:35:25 10° NW 23:39:58 25° WSW 23:44:30 10° SSW
Cosmos 2263 Rocket 4.3 23:37:50 10° SSE 23:42:34 28° ESE 23:47:17 10° NE
Cosmos 1939 Rocket 3.9 23:40:31 10° NNW 23:43:52 26° WNW 23:47:13 10° SW
Cosmos 2227 Rocket 2.2 23:38:42 10° SSW 23:44:21 77° WNW 23:50:00 10° NNE
Cosmos 836 Rocket 4.5 23:40:54 10° NNW 23:46:03 76° WSW 23:51:14 10° S
IRS-1C 4.2 23:41:54 10° N 23:47:11 67° WNW 23:52:27 10° SSW
